sat.trackr.live / text

‹ back to catalog

STARLINK-33687

NORAD 63485 · 2025-070AB

PAYLOAD ACTIVE UNKNOWN

§ Identity

Operator
Country
US
Launch date
2025-04-06
Launch site
AFETR
Launch vehicle
Mass (kg)
RCS (m²)

Purposes: comms

External: N2YO · Heavens-Above · Gunter

§ Orbital elements

Epoch: 2026-05-25T04:00:03.998880Z

Period
94.27 min
Inclination
43.0000°
Eccentricity
0.0001260
Mean motion
15.27581277 rev/d
Perigee alt
482.2 km
Apogee alt
483.9 km
Semi-major
6,861.2 km
B*
1.6402e-4
RAAN
187.5914°
Arg perigee
265.9648°
Mean anomaly
158.9667°
Rev number
590

§ Raw data

STARLINK-336871 63485U 25070AB  26145.16671295  .00004254  00000+0  16402-3 0  99952 63485  43.0000 187.5914 0001260 265.9648 158.9667 15.27581277  5900

JSON: /api/v1/satellites/63485 · /tle

For live sub-satellite position, see the globe view (requires WebGL).

§ Visibility from observer

Set your observer location to see the next 7 days of passes ≥ 10°. The values pass through the URL so the page stays shareable.

No JS? Fill the form by hand. The geolocation button needs JavaScript.